Pilot Mountain, NC

2:55 PM EST on February 14, 2016 (GMT -0500)
Mount Airy-Surry County

Weather History for KMWK - March, 2013

Change the Weather History Date:

Friday, March 15, 2013

  Actual Average (KINT) Record (KINT)
Temperature  
Mean Temperature 45 °F -  
Max Temperature 63 °F 55 °F 84 °F (1990)
Min Temperature 27 °F 38 °F 1 °F (1993)
Degree Days  
Heating Degree Days 20    
Moisture  
Dew Point 22 °F    
Average Humidity 40    
Maximum Humidity 65    
Minimum Humidity 27    
Precipitation  
Precipitation 0.00 in - - ()
Sea Level Pressure  
Sea Level Pressure 30.02 in    
Wind  
Wind Speed 4 mph (WSW)    
Max Wind Speed 12 mph    
Max Gust Speed 18 mph    
Visibility 10 miles    
Events      
Averages and records for this station are not official NWS values.
T = Trace of Precipitation, MM = Missing Value Source: NWS Daily Summary

Daily Weather History Graph

Daily Weather History Graph

Search for Another Location

Airport or City:

Trip Planner

Search our weather history database for the weather conditions in past years. The results will help you decide how hot, cold, wet, or windy it might be!

Date:

Astronomy

Mar. 15, 2013 Rise Set
Actual Time 7:32 AM EDT 7:29 PM EDT
Civil Twilight 7:07 AM EDT 7:55 PM EDT
Nautical Twilight 6:37 AM EDT 8:25 PM EDT
Astronomical Twilight 6:06 AM EDT 8:55 PM EDT
Moon 9:29 AM EDT (3/15) 11:34 PM EDT (3/15)
Length of Visible Light 12h 48m
Length of Day
11h 57m
Waxing Crescent, 15% of the Moon is Illuminated
Mar 15
Waxing Crescent
Mar 19
First Quarter
Mar 27
Full
Apr 3
Last Quarter
Apr 10
New

Hourly Weather History & Observations

Time (EDT) Temp. Windchill Dew Point Humidity Pressure Visibility Wind Dir Wind Speed Gust Speed Precip Events Conditions
12:15 AM 38.3 °F 34.8 °F 16.2 °F 41% 30.16 in 10.0 mi WNW 4.6 mph - N/A   Clear
12:35 AM 37.6 °F 34.0 °F 15.6 °F 41% 30.16 in 10.0 mi WNW 4.6 mph - N/A   Clear
12:55 AM 37.4 °F 34.9 °F 15.4 °F 41% 30.16 in 10.0 mi WNW 3.5 mph - N/A   Clear
1:15 AM 37.8 °F 35.3 °F 14.9 °F 39% 30.15 in 10.0 mi West 3.5 mph - N/A   Clear
1:35 AM 36.9 °F 32.2 °F 14.9 °F 41% 30.15 in 10.0 mi WNW 5.8 mph - N/A   Clear
1:55 AM 37.8 °F 34.2 °F 15.4 °F 40% 30.15 in 10.0 mi NW 4.6 mph - N/A   Clear
2:15 AM 38.3 °F 34.8 °F 14.7 °F 38% 30.14 in 10.0 mi NW 4.6 mph - N/A   Clear
2:35 AM 38.1 °F 34.6 °F 14.7 °F 39% 30.13 in 10.0 mi NW 4.6 mph - N/A   Clear
2:55 AM 37.8 °F 34.2 °F 15.3 °F 40% 30.12 in 10.0 mi NW 4.6 mph - N/A   Clear
3:15 AM 37.6 °F 31.6 °F 14.9 °F 40% 30.11 in 10.0 mi NW 8.1 mph - N/A   Clear
3:35 AM 36.9 °F 32.2 °F 14.5 °F 40% 30.11 in 10.0 mi NW 5.8 mph - N/A   Clear
3:55 AM 36.9 °F 33.1 °F 14.4 °F 40% 30.12 in 10.0 mi WNW 4.6 mph - N/A   Clear
4:15 AM 35.6 °F - 13.3 °F 40% 30.12 in 10.0 mi Calm Calm - N/A   Clear
4:35 AM 34.3 °F - 12.6 °F 41% 30.11 in 10.0 mi Calm Calm - N/A   Clear
4:55 AM 32.4 °F - 10.6 °F 40% 30.11 in 10.0 mi Calm Calm - N/A   Clear
5:15 AM 32.0 °F - 9.9 °F 40% 30.11 in 10.0 mi Calm Calm - N/A   Clear
5:35 AM 33.6 °F 30.6 °F 14.0 °F 45% 30.10 in 10.0 mi NNW 3.5 mph - N/A   Clear
5:55 AM 31.8 °F - 8.4 °F 38% 30.11 in 10.0 mi Calm Calm - N/A   Clear
6:15 AM 29.5 °F - 5.4 °F 36% 30.11 in 10.0 mi Calm Calm - N/A   Clear
6:35 AM 28.4 °F - 4.8 °F 37% 30.11 in 10.0 mi Calm Calm - N/A   Clear
6:55 AM 27.7 °F - 5.5 °F 39% 30.11 in 10.0 mi Calm Calm - N/A   Clear
7:15 AM 28.2 °F - 10.6 °F 48% 30.12 in 10.0 mi Calm Calm - N/A   Clear
7:35 AM 28.0 °F - 9.3 °F 45% 30.13 in 10.0 mi Calm Calm - N/A   Clear
7:55 AM 27.7 °F - 11.3 °F 50% 30.14 in 10.0 mi Calm Calm - N/A   Clear
8:15 AM 31.1 °F - 16.5 °F 55% 30.14 in 10.0 mi Calm Calm - N/A   Mostly Cloudy
8:35 AM 33.4 °F - 19.0 °F 56% 30.13 in 10.0 mi Calm Calm - N/A   Mostly Cloudy
8:55 AM 38.1 °F - 22.1 °F 53% 30.12 in 10.0 mi Calm Calm - N/A   Scattered Clouds
9:15 AM 41.0 °F 39.0 °F 23.4 °F 50% 30.12 in 10.0 mi SW 3.5 mph - N/A   Mostly Cloudy
9:35 AM 41.5 °F - 22.8 °F 47% 30.12 in 10.0 mi Calm Calm - N/A   Scattered Clouds
9:55 AM 44.1 °F 41.5 °F 22.1 °F 42% 30.11 in 10.0 mi WSW 4.6 mph - N/A   Clear
10:15 AM 46.0 °F 41.4 °F 22.3 °F 39% 30.11 in 10.0 mi WSW 9.2 mph - N/A   Clear
10:35 AM 47.8 °F - 21.2 °F 35% 30.10 in 10.0 mi WSW 6.9 mph - N/A   Clear
11:55 AM 53.6 °F - 25.5 °F 34% 30.06 in 10.0 mi WSW 9.2 mph 16.1 mph N/A   Clear
12:15 PM 54.7 °F - 26.4 °F 34% 30.06 in 10.0 mi SW 6.9 mph - N/A   Clear
12:35 PM 55.9 °F - 26.4 °F 32% 30.05 in 10.0 mi South 10.4 mph - N/A   Clear
12:55 PM 57.2 °F - 27.0 °F 31% 30.04 in 10.0 mi South 8.1 mph 18.4 mph N/A   Clear
1:15 PM 57.4 °F - 26.2 °F 30% 30.02 in 10.0 mi South 5.8 mph - N/A   Clear
1:35 PM 57.9 °F - 25.9 °F 29% 30.01 in 10.0 mi South 10.4 mph - N/A   Clear
1:55 PM 60.3 °F - 27.7 °F 29% 30.00 in 10.0 mi SSW 9.2 mph - N/A   Clear
2:15 PM 60.4 °F - 27.5 °F 29% 29.98 in 10.0 mi SSW 10.4 mph - N/A   Clear
2:35 PM 61.2 °F - 26.6 °F 27% 29.97 in 10.0 mi SSW 11.5 mph - N/A   Clear
2:55 PM 61.0 °F - 26.4 °F 27% 29.96 in 10.0 mi SSW 9.2 mph 18.4 mph N/A   Clear
3:15 PM 61.9 °F - 27.1 °F 27% 29.94 in 10.0 mi SSW 10.4 mph 17.3 mph N/A   Clear
3:35 PM 62.8 °F - 28.4 °F 27% 29.93 in 10.0 mi SW 8.1 mph 17.3 mph N/A   Clear
3:55 PM 63.1 °F - 28.2 °F 27% 29.91 in 10.0 mi SW 8.1 mph 16.1 mph N/A   Clear
4:15 PM 63.3 °F - 29.5 °F 28% 29.91 in 10.0 mi SSW 9.2 mph - N/A   Clear
4:35 PM 62.8 °F - 29.3 °F 28% 29.90 in 10.0 mi South 8.1 mph 16.1 mph N/A   Clear
4:55 PM 62.1 °F - 29.1 °F 29% 29.90 in 10.0 mi South 11.5 mph 17.3 mph N/A   Clear
5:15 PM 62.2 °F - 29.5 °F 29% 29.89 in 10.0 mi SSW 10.4 mph - N/A   Clear
5:35 PM 62.2 °F - 30.0 °F 30% 29.88 in 10.0 mi SSW 5.8 mph - N/A   Clear
5:55 PM 61.7 °F - 30.7 °F 31% 29.88 in 10.0 mi SSW 6.9 mph - N/A   Clear
6:15 PM 61.7 °F - 31.3 °F 32% 29.88 in 10.0 mi SSW 5.8 mph - N/A   Clear
6:35 PM 61.2 °F - 31.6 °F 33% 29.88 in 10.0 mi SSW 5.8 mph - N/A   Clear
6:55 PM 60.3 °F - 32.0 °F 34% 29.88 in 10.0 mi SW 5.8 mph - N/A   Clear
7:15 PM 59.9 °F - 32.4 °F 35% 29.89 in 10.0 mi WSW 4.6 mph - N/A   Clear
7:35 PM 57.9 °F - 32.5 °F 38% 29.89 in 10.0 mi SSW 5.8 mph - N/A   Clear
7:55 PM 57.4 °F - 32.0 °F 38% 29.90 in 10.0 mi WSW 3.5 mph - N/A   Clear
8:15 PM 56.3 °F - 32.5 °F 41% 29.90 in 10.0 mi Calm Calm - N/A   Clear
8:35 PM 54.0 °F - 30.0 °F 40% 29.90 in 10.0 mi Calm Calm - N/A   Clear
8:55 PM 50.7 °F - 24.3 °F 36% 29.90 in 10.0 mi Calm Calm - N/A   Clear
9:15 PM 48.2 °F - 23.5 °F 38% 29.90 in 10.0 mi Calm Calm - N/A   Clear
9:35 PM 47.3 °F - 28.0 °F 47% 29.90 in 10.0 mi Calm Calm - N/A   Clear
9:55 PM 47.5 °F - 30.2 °F 51% 29.90 in 10.0 mi Calm Calm - N/A   Clear
10:15 PM 47.1 °F - 31.6 °F 55% 29.90 in 10.0 mi Calm Calm - N/A   Clear
10:35 PM 45.1 °F - 29.8 °F 55% 29.89 in 10.0 mi Calm Calm - N/A   Clear
10:55 PM 44.4 °F - 29.8 °F 57% 29.89 in 10.0 mi Calm Calm - N/A   Clear
11:15 PM 43.7 °F - 31.1 °F 61% 29.88 in 10.0 mi Calm Calm - N/A   Clear
11:35 PM 43.7 °F - 32.2 °F 64% 29.88 in 10.0 mi Calm Calm - N/A   Clear
11:55 PM 42.8 °F - 31.6 °F 65% 29.88 in 10.0 mi Calm Calm - N/A   Clear